This is the latest recevied weather packets stored in our database for station/object DM4WH-13. If no packets are shown the sender has not sent any weather packets the latest 10 day(s).
| Time | Temp. | Humidity | Pressure | Rain* | Wind** | Luminosity | Snow |
|---|---|---|---|---|---|---|---|
| 1777727425 | 26.11° C | 24% | 1022.1 hPa | 0 mm | 0.45 m/s, 357° | - | - |
| 1777726826 | 25° C | 27% | 1022.2 hPa | 0 mm | 0.45 m/s, 117° | - | - |
| 1777726513 | 25° C | 25% | 1022.3 hPa | 0 mm | 0.89 m/s, 101° | - | - |
| 1777726226 | 25° C | 25% | 1022.4 hPa | 0 mm | 0.89 m/s, 41° | - | - |
| 1777725914 | 25° C | 26% | 1022.4 hPa | 0 mm | 0.45 m/s, 5° | - | - |
| 1777725626 | 25° C | 25% | 1022.4 hPa | 0 mm | 0 m/s | - | - |
| 1777725313 | 25° C | 27% | 1022.5 hPa | 0 mm | 0.89 m/s, 234° | - | - |
| 1777725038 | 25° C | 28% | 1022.6 hPa | 0 mm | 0.45 m/s, 230° | - | - |
| 1777724725 | 25° C | 27% | 1022.7 hPa | 0 mm | 0.45 m/s, 208° | - | - |
| 1777724413 | 25° C | 26% | 1022.7 hPa | 0 mm | 0.45 m/s, 35° | - | - |
| 1777724126 | 26.11° C | 25% | 1022.7 hPa | 0 mm | 0.45 m/s, 108° | - | - |
| 1777723813 | 25° C | 28% | 1022.9 hPa | 0 mm | 0.45 m/s, 120° | - | - |
| 1777723526 | 25° C | 26% | 1023 hPa | 0 mm | 0.45 m/s, 208° | - | - |
| 1777722926 | 25° C | 26% | 1023.2 hPa | 0 mm | 0.45 m/s, 102° | - | - |
| 1777722013 | 25° C | 26% | 1023.4 hPa | 0 mm | 0.89 m/s, 112° | - | - |
| 1777721726 | 25° C | 24% | 1023.4 hPa | 0 mm | 0.45 m/s, 24° | - | - |
| 1777721413 | 25° C | 24% | 1023.6 hPa | 0 mm | 0.45 m/s, 42° | - | - |
| 1777721126 | 25° C | 24% | 1023.5 hPa | 0 mm | 0.45 m/s, 36° | - | - |
| 1777720814 | 23.89° C | 27% | 1023.5 hPa | 0 mm | 0.89 m/s, 108° | - | - |
| 1777720526 | 25° C | 25% | 1023.6 hPa | 0 mm | 0.45 m/s, 26° | - | - |
| 1777720213 | 23.89° C | 26% | 1023.7 hPa | 0 mm | 0.45 m/s, 84° | - | - |
| 1777719926 | 25° C | 24% | 1023.8 hPa | 0 mm | 0.89 m/s, 15° | - | - |
| 1777719613 | 23.89° C | 31% | 1023.9 hPa | 0 mm | 0.45 m/s, 102° | - | - |
| 1777719326 | 23.89° C | 25% | 1023.9 hPa | 0 mm | 0.89 m/s, 36° | - | - |
| 1777719013 | 23.89° C | 26% | 1023.9 hPa | 0 mm | 0.89 m/s, 73° | - | - |
* Rain latest hour (hover to see other rain measurements)
** Current wind speed in m/s (hover to see current wind gust speed)